Regional Weather Roundup
Issued by NWS Charleston, WV

Home | Current Version | Previous Version | Graphics & Text | Print | Product List | Glossary Off
Versions: 1 2 3 4 5 6 7 8 9 10 11 12 13 14 15 16 17 18 19 20 21 22 23 24 25 26 27 28 29 30 31 32 33 34 35 36 37 38 39 40 41 42 43 44 45 46 47 48 49 50

000
ASUS41 KRLX 241610
RWRRLX
West Virginia Regional Weather Roundup
National Weather Service Charleston WV
1200 PM EDT THU MAY 24 2018

Note: "fair" indicates few or no clouds below 12,000 feet with no
significant weather and/or obstructions to visibility.

WVZ003-241700-
Northern Panhandle of West Virginia

CITY           SKY/WX    TMP DP  RH WIND       PRES   REMARKS
WHEELING       FAIR      75  52  44 NE6       30.24F
$$

WVZ009-241700-
Northwest West Virginia

CITY           SKY/WX    TMP DP  RH WIND       PRES   REMARKS
PARKERSBURG    FAIR      76  56  49 E8G16     30.24F
$$

WVZ006-241700-
Western West Virginia

CITY           SKY/WX    TMP DP  RH WIND       PRES   REMARKS
HUNTINGTON     FAIR      76  59  55 NE8       30.19S
$$

WVZ015-241700-
West Central West Virginia

CITY           SKY/WX    TMP DP  RH WIND       PRES   REMARKS
CHARLESTON     FAIR      75  62  64 N3        30.19S
$$

WVZ022-031-241700-
North Central West Virginia

CITY           SKY/WX    TMP DP  RH WIND       PRES   REMARKS
CLARKSBURG     FAIR      77  52  41 E9        30.23F
MORGANTOWN     FAIR      77  50  38 VRB6      30.24F
$$

WVZ025-035-042-045-241700-
Southern West Virginia

CITY           SKY/WX    TMP DP  RH WIND       PRES   REMARKS
BECKLEY        FAIR      73  59  61 S12       30.25S
LOGAN          FAIR      75  63  64 CALM      30.20S
BLUEFIELD      FAIR      70  59  68 SW3       30.27S
LEWISBURG      PTSUNNY   72  56  56 E5        30.27S
$$

WVZ047-241700-
Northern Mountains of West Virginia

CITY           SKY/WX    TMP DP  RH WIND       PRES   REMARKS
ELKINS         FAIR      75  52  44 VRB3      30.26S
$$

WVZ052-241700-
Eastern Panhandle of West Virginia

CITY           SKY/WX    TMP DP  RH WIND       PRES   REMARKS
MARTINSBURG    FAIR      78  50  37 N5        30.21F
PETERSBURG     FAIR      73  56  54 CALM      30.25S
$$



USA.gov is the U.S. government's official web portal to all federal, state and local government web resources and services.